Regional Weather Roundup
Issued by NWS

Home | Current Version | Previous Version | Graphics & Text | Print | Product List | Glossary On
Versions: 1 2 3 4 5 6 7 8 9 10 11 12 13 14 15 16 17 18 19 20 21 22 23 24 25 26 27 28 29 30 31 32 33 34 35 36 37 38 39 40 41 42 43 44 45 46 47 48 49 50
000
ASUS43 KMKX 181400
RWRWI

WISCONSIN REGIONAL WEATHER ROUNDUP
NATIONAL WEATHER SERVICE MILWAUKEE/SULLIVAN WI
900 AM CDT FRI AUG 18 2017

NOTE: "FAIR" INDICATES FEW OR NO CLOUDS BELOW 12,000 FEET WITH NO
SIGNIFICANT WEATHER AND/OR OBSTRUCTIONS TO VISIBILITY.

WIZ001-002-006>008-014>016-023>028-181500-
NORTHWEST WISCONSIN

CITY           SKY/WX    TMP DP  RH WIND       PRES   REMARKS
SUPERIOR ARPT    N/A     60  58  93 S5        29.84S
ASHLAND        CLOUDY    63  59  87 SW8       29.84R
HAYWARD        CLOUDY    62  56  80 CALM      29.87R
SIREN          PTSUNNY   60  58  95 CALM      29.87F
CUMBERLAND     CLOUDY    61  57  88 N9        29.87S
RICE LAKE      CLOUDY    63  59  87 NW6       29.88S
CHETEK         CLOUDY    62  59  90 NW5       29.87S
LADYSMITH      PTSUNNY   64  59  84 W8        29.88R
EAU CLAIRE     NOT AVBL
MENOMONIE      MOSUNNY   64  60  85 W5        29.87S
NEW RICHMOND   CLOUDY    62  60  94 W5        29.88S
OSCEOLA        CLOUDY    61  61 100 CALM      29.90S
$$

WIZ003>005-009-010-017-018-181500-
NORTH CENTRAL WISCONSIN

CITY           SKY/WX    TMP DP  RH WIND       PRES   REMARKS
MANITOWISH WTR CLOUDY    59  59 100 NW9       29.81S
ARBOR VITAE    CLOUDY    60  58  94 N10       29.80S FOG
WOODRUFF       CLOUDY    60  58  94 N10       29.80S FOG
RHINELANDER    LGT RAIN  60  59  96 NW8       29.81R
EAGLE RIVER    LGT RAIN  59  58  97 N9G17     29.79S
LAND O LAKES   CLOUDY    59  57  92 NW5       29.81S
PHILLIPS       CLOUDY    59  59  99 NW6       29.83R
TOMAHAWK         N/A     60  56  88 NW6       29.82S
MEDFORD        CLOUDY    60  57  88 NW9       29.84R
MERRILL        MOSUNNY   61  59  94 NW6       29.82R
$$

WIZ029-030-035-036-043>047-181500-
CENTRAL WISCONSIN

CITY           SKY/WX    TMP DP  RH WIND       PRES   REMARKS
WAUSAU         CLOUDY    62  59  90 NW10      29.81R
MOSINEE        CLOUDY    63  59  88 NW10G16   29.84R
MARSHFIELD     PTSUNNY   64  57  78 NW14G23   29.84R
STEVENS POINT  CLOUDY    61  58  90 NW5       29.82S
WAUPACA        CLOUDY    67  60  75 W9        29.80R
WAUTOMA        CLOUDY    65  58  78 W13G20    29.84R
WISC RAPIDS    PTSUNNY   66  58  75 NW13      29.85R
CAMP DOUGLAS   MOSUNNY   64  59  82 NW15      29.86R
$$

WIZ011>013-019>022-031-037>040-048>050-181500-
NORTHEAST WISCONSIN

CITY           SKY/WX    TMP DP  RH WIND       PRES   REMARKS
ANTIGO         CLOUDY    60  57  91 NW13G18   29.80R
SHAWANO        CLOUDY    67  60  78 W7        29.77R
OCONTO         CLOUDY    67  58  74 NW10G20   29.72R
STURGEON BAY   CLOUDY    66  59  78 NW16G22   29.72R
GREEN BAY      PTSUNNY   68  62  81 W15G24    29.76R
MANITOWOC      NOT AVBL
APPLETON       CLOUDY    64  55  72 W15G22    29.78R
CLINTONVILLE   CLOUDY    64  55  72 NW14G21   29.78R
OSHKOSH        CLOUDY    65  59  81 W13       29.80R
$$

WIZ032>034-041-042-053>061-181500-
SOUTHWEST WISCONSIN

CITY           SKY/WX    TMP DP  RH WIND       PRES   REMARKS
LA CROSSE      SUNNY     71  60  68 NW8       29.87F
SPARTA         SUNNY     65  58  78 NW7       29.88R
VIROQUA        SUNNY     65  61  88 NW7       29.89S
BOSCOBEL       MOSUNNY   69  60  73 VRB3      29.88S
PRAIRIE DU CHI CLOUDY    65  57  74 NW7       29.89S
PLATTEVILLE    MOSUNNY   65  64  97 NW13      29.90S
$$

WIZ056-057-062-063-064-067-068-181500-
SOUTH CENTRAL WISCONSIN

CITY           SKY/WX    TMP DP  RH WIND       PRES   REMARKS
REEDSBURG      CLOUDY    65  61  86 W10       29.87R
BARABOO/DELLS  CLOUDY    65  57  73 W13       29.87R
LONE ROCK      NOT AVBL
MINERAL POINT  PTSUNNY   64  64 100 NW10      29.89R
MADISON        PTSUNNY   66  58  75 NW14G23   29.86R
MIDDLETON      PTSUNNY   68  61  78 CALM      29.87R
WATERTOWN      CLOUDY    65  62  89 W6        29.84R
MONROE         PTSUNNY   64  61  88 NW8       29.87S
JANESVILLE     PTSUNNY   70  63  78 NW12      29.85R
$$

WIZ051-052-058>065-066-070>072-181500-
SOUTHEAST WISCONSIN

CITY           SKY/WX    TMP DP  RH WIND       PRES   REMARKS
MILWAUKEE      CLOUDY    69  59  70 W12       29.82R
WAUKESHA       CLOUDY    64  57  77 NW12G17   29.85R
MILWAUKEE/TIMM CLOUDY    66  55  68 W9        29.83R
RACINE         CLOUDY    68  61  78 NW8       29.85R
KENOSHA        CLOUDY    68  60  75 NW10      29.84R
FOND DU LAC    CLOUDY    66  58  75 W12       29.81R
SHEBOYGAN      CLOUDY    66  61  84 NW13G18   29.79R
WEST BEND      CLOUDY    64  59  82 W10G16    29.82R
JUNEAU         CLOUDY    64  58  81 W6        29.85R
$$

LSZ147-162-181500-
LAKE SUPERIOR

STATION/POSITION TIME  TEMP    WIND        PRES    WAVE
                       AIR SEA DIR/SP/G            HT/PER
                 (UTC) (F)     (DEG/KT/KT) (MB)    (FT/S)
W MID LAKE BUOY  1250   61 60  300/  6/  8 1007.7R   2/ 5
DEVILS ISLAND    1300   62     280/  8/  9 1009.3R
SAXON HARBOR     1330   63     280/  4/  7 1009.1S
$$

LMZ867-665-643>646-181500-
LAKE MICHIGAN

STATION/POSITION TIME  TEMP    WIND        PRES    WAVE
                       AIR SEA DIR/SP/G            HT/PER
                 (UTC) (F)     (DEG/KT/KT) (MB)    (FT/S)
S GREEN BAY BUOY 1330   67 71  290/ 12/ 16 1006.2R
N MID LAKE BUOY  1250   65 67  310/ 19/ 25 1003.3R   5/ 5
NORTHPORT PIER   1330   66     300/ 11/ 19 1005.1R
KEWAUNEE LAKESHO 1330   67     300/  7/ 16 1005.8R
SHEBOYGAN LAKESH 1300   67     280/ 11/ 14 1007.3R
PORT WASHINGTON  1340   68     290/  9/ 15 1010.5R
ATWATER BUOY     1209   69 70  290/ 12/ 16 1008.6R
MILWAUKEE LAKESH 1330   68     280/ 12/ 15   N/A
S MID LAKE BUOY  1250   69 71  320/ 17/ 21 1008.5R   4/ 5
KENOSHA   LAKESH 1300   67     260/  9/ 13 1009.8
$$

TC  - TEMPERATURE IN CELSIUS
VSB - VISIBILITY IN STATUTE MILES
WCI - WIND CHILL INDEX
HX  - HEAT INDEX





USA.gov is the U.S. government's official web portal to all federal, state and local government web resources and services.